Location: Goll?ig?dem
(16.6773°N, 80.7332°E)
Time: 21:04:56
(UTC+00:00)

Cosmos 1954 Rocket - Pass Details

Date: 19 May 2025
Orbit: 749 x 776 km, 74.0° (Epoch: 21 June)

Event Time Altitude Azimuth Distance (km) Brightness Sun altitude
Exits shadow 22:49:30 23° 207° (SSW) 1,605 5.2 -17.3°
Maximum altitude 22:52:47 65° 284° (WNW) 849 4.0 -16.6°
Drops below altitude 10° 22:58:01 10° 6° (N) 2,316 6.9 -15.5°
Sets 23:00:25 0° 9° (N) 3,242 7.8 -15.0°
